• In Kazakhstan
  • List of Countries
  • For 7 days
  • Water Temperature
  • Weather Map
  • News
  • Weather Widgets
  • user-avatar
    Login

    Hourly Weather Kanye

    Today, 28 February, Friday

    Time Temperature Precipitation Wind Pressure Humidity
    00:00 +21°C° 0 mm 1 mps 650 mmHg 46%
    01:00 +21°C° 0 mm 1 mps 650 mmHg 47%
    02:00 +21°C° 0 mm 1 mps 650 mmHg 47%
    03:00 +21°C° 0 mm 1 mps 650 mmHg 46%
    04:00 +21°C° 0 mm 1 mps 650 mmHg 45%
    05:00 +20°C° 0 mm 2 mps 650 mmHg 44%
    06:00 +21°C° 0 mm 2 mps 651 mmHg 41%
    07:00 +24°C° 0 mm 2 mps 652 mmHg 37%
    08:00 +25°C° 0 mm 3 mps 653 mmHg 33%
    09:00 +27°C° 0 mm 3 mps 653 mmHg 29%
    10:00 +29°C° 0 mm 4 mps 654 mmHg 24%
    11:00 +33°C° 0 mm 5 mps 654 mmHg 19%
    12:00 +33°C° 0 mm 4 mps 654 mmHg 19%
    13:00 +34°C° 0 mm 4 mps 653 mmHg 19%
    14:00 +35°C° 0 mm 3 mps 653 mmHg 20%
    15:00 +34°C° 0 mm 3 mps 652 mmHg 20%
    16:00 +34°C° 0 mm 3 mps 652 mmHg 21%
    17:00 +33°C° 0 mm 3 mps 651 mmHg 22%
    18:00 +31°C° 0 mm 3 mps 651 mmHg 25%
    19:00 +29°C° 0 mm 3 mps 651 mmHg 27%
    20:00 +27°C° 0 mm 3 mps 651 mmHg 30%
    21:00 +26°C° 0 mm 4 mps 651 mmHg 36%
    22:00 +26°C° 0 mm 6 mps 652 mmHg 42%
    23:00 +24°C° 0 mm 8 mps 652 mmHg 47%

    Tomorrow, 29 February, Saturday

    Time Temperature Precipitation Wind Pressure Humidity
    00:00 +23°C° 0 mm 8 mps 652 mmHg 54%
    01:00 +22°C° 0 mm 9 mps 652 mmHg 61%
    02:00 +21°C° 0 mm 10 mps 652 mmHg 68%
    03:00 +19°C° 0 mm 9 mps 652 mmHg 69%
    04:00 +18°C° 0 mm 8 mps 652 mmHg 70%
    05:00 +17°C° 0 mm 8 mps 652 mmHg 71%
    06:00 +17°C° 0 mm 8 mps 652 mmHg 68%
    07:00 +18°C° 0 mm 9 mps 653 mmHg 66%
    08:00 +18°C° 0 mm 9 mps 654 mmHg 63%
    09:00 +21°C° 0 mm 9 mps 654 mmHg 57%
    10:00 +23°C° 0 mm 9 mps 655 mmHg 52%
    11:00 +26°C° 0 mm 9 mps 655 mmHg 46%
    12:00 +27°C° 0 mm 8 mps 655 mmHg 42%
    13:00 +29°C° 0 mm 7 mps 654 mmHg 38%
    14:00 +30°C° 0 mm 6 mps 654 mmHg 34%
    15:00 +30°C° 0 mm 6 mps 653 mmHg 34%
    16:00 +30°C° 0 mm 6 mps 653 mmHg 35%
    17:00 +29°C° 0 mm 5 mps 652 mmHg 35%
    18:00 +27°C° 0 mm 5 mps 652 mmHg 40%
    19:00 +26°C° 0 mm 6 mps 652 mmHg 46%
    20:00 +23°C° 0 mm 6 mps 652 mmHg 51%
    21:00 +22°C° 0 mm 6 mps 652 mmHg 53%
    22:00 +21°C° 0 mm 6 mps 653 mmHg 54%
    23:00 +21°C° 0 mm 6 mps 653 mmHg 56%

    Day after tomorrow, 1 March, Sunday

    Time Temperature Precipitation Wind Pressure Humidity
    00:00 +20°C° 0 mm 6 mps 653 mmHg 59%
    01:00 +19°C° 0 mm 6 mps 653 mmHg 61%
    02:00 +19°C° 0 mm 5 mps 652 mmHg 63%
    03:00 +17°C° 0 mm 6 mps 652 mmHg 67%
    04:00 +16°C° 0 mm 6 mps 652 mmHg 70%
    05:00 +16°C° 0 mm 6 mps 652 mmHg 73%
    06:00 +16°C° 0.2 mm 6 mps 652 mmHg 74%
    07:00 +16°C° 0.2 mm 6 mps 653 mmHg 75%
    08:00 +16°C° 0.2 mm 6 mps 653 mmHg 76%
    09:00 +17°C° 0.1 mm 6 mps 653 mmHg 71%
    10:00 +19°C° 0.1 mm 5 mps 654 mmHg 66%
    11:00 +20°C° 0.1 mm 5 mps 654 mmHg 61%
    12:00 +20°C° 0.1 mm 4 mps 654 mmHg 60%
    13:00 +21°C° 0.1 mm 3 mps 653 mmHg 58%
    14:00 +23°C° 0.1 mm 2 mps 653 mmHg 56%
    15:00 +20°C° 0.3 mm 2 mps 652 mmHg 63%
    16:00 +19°C° 0.3 mm 3 mps 652 mmHg 69%
    17:00 +18°C° 0.3 mm 4 mps 651 mmHg 76%
    18:00 +18°C° 0.2 mm 4 mps 651 mmHg 77%
    19:00 +17°C° 0.2 mm 4 mps 651 mmHg 78%
    20:00 +15°C° 0.2 mm 4 mps 651 mmHg 78%
    21:00 +17°C° 0.1 mm 3 mps 651 mmHg 76%
    22:00 +17°C° 0.1 mm 2 mps 651 mmHg 74%
    23:00 +16°C° 0.1 mm 0 mps 652 mmHg 72%

    2 March, Monday

    Time Temperature Precipitation Wind Pressure Humidity
    00:00 +18°C° 0 mm 1 mps 651 mmHg 73%
    01:00 +18°C° 0 mm 1 mps 651 mmHg 74%
    02:00 +18°C° 0 mm 1 mps 651 mmHg 75%
    03:00 +18°C° 0 mm 1 mps 651 mmHg 75%
    04:00 +16°C° 0 mm 1 mps 651 mmHg 75%
    05:00 +16°C° 0 mm 1 mps 651 mmHg 75%
    06:00 +18°C° 0 mm 1 mps 651 mmHg 72%
    07:00 +18°C° 0 mm 2 mps 651 mmHg 70%
    08:00 +18°C° 0 mm 2 mps 652 mmHg 67%
    09:00 +21°C° 0 mm 3 mps 652 mmHg 59%
    10:00 +24°C° 0 mm 3 mps 653 mmHg 50%
    11:00 +27°C° 0 mm 3 mps 654 mmHg 41%
    12:00 +27°C° 0 mm 3 mps 653 mmHg 41%
    13:00 +27°C° 0 mm 2 mps 653 mmHg 40%
    14:00 +27°C° 0 mm 1 mps 652 mmHg 40%
    15:00 +26°C° 0.1 mm 2 mps 651 mmHg 47%
    16:00 +24°C° 0.1 mm 2 mps 650 mmHg 54%
    17:00 +23°C° 0.1 mm 2 mps 650 mmHg 61%
    18:00 +21°C° 0 mm 2 mps 650 mmHg 63%
    19:00 +21°C° 0 mm 1 mps 650 mmHg 65%
    20:00 +20°C° 0 mm 1 mps 650 mmHg 68%
    21:00 +20°C° 0 mm 1 mps 650 mmHg 70%
    22:00 +19°C° 0 mm 1 mps 651 mmHg 72%
    23:00 +17°C° 0 mm 0 mps 651 mmHg 74%

    3 March, Tuesday

    Time Temperature Precipitation Wind Pressure Humidity
    00:00 +19°C° 0 mm 1 mps 651 mmHg 74%
    01:00 +18°C° 0 mm 1 mps 651 mmHg 73%
    02:00 +18°C° 0 mm 1 mps 650 mmHg 72%
    03:00 +18°C° 0 mm 1 mps 651 mmHg 73%
    04:00 +18°C° 0 mm 1 mps 651 mmHg 73%
    05:00 +18°C° 0 mm 1 mps 651 mmHg 73%
    06:00 +18°C° 0 mm 2 mps 652 mmHg 68%
    07:00 +20°C° 0 mm 2 mps 652 mmHg 63%
    08:00 +21°C° 0 mm 3 mps 653 mmHg 59%
    09:00 +24°C° 0 mm 3 mps 654 mmHg 50%
    10:00 +27°C° 0 mm 3 mps 654 mmHg 42%
    11:00 +29°C° 0 mm 3 mps 655 mmHg 34%
    12:00 +30°C° 0 mm 3 mps 654 mmHg 30%
    13:00 +31°C° 0 mm 3 mps 654 mmHg 27%
    14:00 +34°C° 0 mm 3 mps 654 mmHg 23%
    15:00 +33°C° 0 mm 3 mps 654 mmHg 24%
    16:00 +31°C° 0 mm 3 mps 653 mmHg 25%
    17:00 +32°C° 0 mm 4 mps 653 mmHg 26%
    18:00 +29°C° 0 mm 3 mps 653 mmHg 30%
    19:00 +28°C° 0 mm 3 mps 653 mmHg 34%
    20:00 +26°C° 0 mm 2 mps 653 mmHg 38%
    21:00 +25°C° 0 mm 2 mps 653 mmHg 41%
    22:00 +24°C° 0 mm 2 mps 653 mmHg 44%
    23:00 +23°C° 0 mm 2 mps 653 mmHg 48%

    4 March, Wednesday

    Time Temperature Precipitation Wind Pressure Humidity
    00:00 +23°C° 0 mm 2 mps 653 mmHg 51%
    01:00 +21°C° 0 mm 3 mps 653 mmHg 54%
    02:00 +20°C° 0 mm 3 mps 653 mmHg 58%
    03:00 +20°C° 0 mm 3 mps 653 mmHg 62%
    04:00 +19°C° 0 mm 4 mps 653 mmHg 67%
    05:00 +18°C° 0 mm 4 mps 653 mmHg 72%
    06:00 +19°C° 0 mm 5 mps 654 mmHg 71%
    07:00 +20°C° 0 mm 5 mps 655 mmHg 71%
    08:00 +20°C° 0 mm 6 mps 655 mmHg 71%
    09:00 +23°C° 0 mm 6 mps 656 mmHg 61%
    10:00 +26°C° 0 mm 5 mps 656 mmHg 52%
    11:00 +29°C° 0 mm 5 mps 657 mmHg 42%
    12:00 +30°C° 0 mm 5 mps 656 mmHg 37%
    13:00 +32°C° 0 mm 4 mps 656 mmHg 32%
    14:00 +33°C° 0 mm 4 mps 656 mmHg 26%
    15:00 +33°C° 0 mm 4 mps 655 mmHg 27%
    16:00 +31°C° 0 mm 3 mps 655 mmHg 28%
    17:00 +31°C° 0 mm 3 mps 654 mmHg 29%
    18:00 +29°C° 0 mm 3 mps 654 mmHg 33%
    19:00 +27°C° 0 mm 3 mps 654 mmHg 37%
    20:00 +25°C° 0 mm 2 mps 653 mmHg 41%
    21:00 +24°C° 0 mm 2 mps 653 mmHg 44%
    22:00 +23°C° 0 mm 1 mps 653 mmHg 46%
    23:00 +22°C° 0 mm 1 mps 653 mmHg 49%
    Show more